{"data":{"norad_id":56020,"intl_designator":"2023-042AL","name":"STARLINK-5912","alt_names":[],"object_type":"PAYLOAD","status":"ACTIVE","operator":null,"country":"US","launch_date":"2023-03-24","launch_site_code":"AFETR","launch_vehicle":null,"mission":null,"orbit_class":"UNKNOWN","rcs_meters":null,"size_class":null,"mass_kg":null,"dimensions":null,"purposes":["comms"],"wikipedia_slug":null,"has_3d_model":false,"image_url":null,"decayed_at":null,"tle_current":{"epoch":"2026-09-20T08:22:47.597664Z","epoch_age_seconds":119225,"freshness":"FRESH","line1":"1 56020U 23042AL  26263.34916201  .00000945  00000+0  43873-4 0  9995","line2":"2 56020  43.0035  26.1076 0001755 274.2837  85.7814 15.27576743192803","mean_motion":15.27576743,"eccentricity":0.0001755,"inclination_deg":43.0035,"raan_deg":26.1076,"arg_perigee_deg":274.2837,"mean_anomaly_deg":85.7814,"bstar":4.3873e-5,"rev_number":19280,"period_min":94.266949703096,"perigee_km":481.85470881524,"apogee_km":484.26298855813,"semimajor_km":6861.1958486867,"source":"CELESTRAK","updated_at":"2026-09-21T09:00:33.356358Z"}}}